Wind_Speed
47 48 49 49 50 49 48 48 48 48 48 48 48 49 49 49 49 50 49 49 48 48 47 47 47 46 45 45 45 44 43 43 42 41 41 42 42 42 42 42 42 42 42
47 48 49 49 50 49 49 49 49 49 49 48 48 49 50 50 50 49 49 48 48 48 47 47 47 46 46 46 46 46 45 44 43 42 42 42 43 43 43 42 42 43 42
46 47 48 49 49 48 48 48 48 48 48 48 48 48 49 49 49 50 50 50 50 49 48 48 48 48 48 48 48 47 46 45 45 44 43 43 43 43 43 43 44 43 43
44 45 46 47 48 48 47 47 47 47 48 48 47 47 48 48 49 50 49 49 50 49 49 49 49 49 48 49 48 48 47 46 46 45 44 44 44 44 44 44 43 43 43
43 44 45 46 47 47 47 47 46 46 46 47 47 46 47 47 48 49 49 49 49 49 49 50 50 50 49 48 49 48 48 48 48 47 46 46 46 45 45 44 43 43 43
42 42 43 44 45 46 46 46 45 45 45 45 45 45 45 46 47 47 48 48 48 48 49 50 50 50 50 49 49 49 49 48 48 48 47 47 46 45 45 44 44 43 42
40 40 41 42 44 44 45 45 45 45 45 45 45 45 45 46 46 46 46 46 47 47 48 49 49 50 50 50 49 48 48 48 48 48 47 46 46 45 45 44 43 43 42
39 39 39 41 43 44 44 44 45 45 45 45 44 44 45 46 47 47 47 46 46 46 46 47 47 48 48 48 48 47 48 48 48 48 47 47 46 45 45 44 43 43 42
38 39 39 40 42 43 43 43 44 44 44 44 44 44 44 45 46 47 47 47 47 46 46 46 46 46 46 46 47 47 47 47 47 47 47 47 46 45 44 44 43 43 42
36 37 38 39 40 41 42 43 43 44 44 43 44 44 44 44 45 46 47 47 47 47 46 46 45 45 45 44 45 46 46 46 46 46 46 46 45 45 44 44 43 43 42
34 35 36 37 38 39 41 42 42 42 42 42 42 43 43 43 44 44 45 45 45 46 45 44 44 45 45 44 44 44 45 46 46 46 46 46 45 44 44 44 44 44 43
33 33 34 34 36 37 38 39 40 40 40 40 40 41 42 43 43 43 43 43 44 44 44 44 43 44 44 44 44 44 44 44 44 45 45 45 45 45 44 44 45 45 44
31 31 32 33 34 35 36 37 38 39 39 39 40 41 41 42 42 42 42 42 43 43 43 44 43 43 43 44 44 44 44 44 44 44 44 45 45 45 45 45 44 45 45
29 29 30 31 32 33 33 35 36 37 38 38 38 39 40 40 41 41 41 41 41 41 42 43 44 43 43 42 42 43 43 43 43 43 43 43 44 45 45 45 45 45 45
27 28 28 29 30 31 31 32 33 34 35 36 36 37 37 38 39 39 40 40 40 41 41 42 42 42 42 42 42 42 42 42 42 42 42 41 42 43 44 44 45 45 45
24 25 26 27 28 29 29 30 31 32 33 34 35 35 35 36 37 38 39 39 40 40 40 40 40 40 40 41 41 41 41 41 42 41 41 40 40 41 42 43 43 43 43
25 25 25 26 26 27 28 28 28 30 31 33 34 34 34 34 35 36 37 38 39 39 39 39 39 39 40 40 40 40 40 40 41 41 41 40 40 40 41 41 41 41 41
25 25 25 25 26 26 27 27 27 28 29 31 33 34 34 33 34 35 35 36 37 37 37 38 38 38 39 39 39 39 39 39 39 40 40 39 39 39 39 40 40 40 40
24 24 25 25 25 25 26 27 27 28 29 30 31 32 33 33 33 34 34 35 35 36 36 36 36 36 36 37 37 37 37 37 38 38 39 38 38 38 38 38 38 38 38
25 25 25 25 25 25 26 27 28 28 29 30 30 31 32 32 33 34 34 35 35 35 35 35 35 35 35 35 36 36 36 37 37 37 37 37 36 36 36 35 35 35 35
25 25 25 26 26 27 27 28 28 29 29 29 29 30 31 31 32 33 34 34 34 34 34 34 34 34 34 34 34 35 35 36 36 35 35 35 35 34 34 34 34 34 34
24 25 25 26 27 27 28 28 29 29 29 29 29 29 29 30 31 31 32 33 33 33 33 33 33 33 33 33 33 33 33 34 34 34 34 34 34 34 34 33 33 33 33
24 24 24 25 26 26 27 28 28 28 29 28 28 28 28 29 29 30 31 32 32 33 32 32 32 32 32 32 32 32 32 33 33 33 33 32 32 33 33 32 32 31 31
23 23 23 23 24 24 25 26 26 26 27 27 27 26 26 27 28 29 29 30 30 31 32 32 31 31 31 31 31 31 32 32 32 32 32 32 32 32 31 31 30 30 29
23 23 23 23 23 23 23 23 23 24 24 25 25 25 25 25 26 27 28 28 28 29 29 30 30 30 30 30 30 30 31 31 31 31 31 31 30 30 30 30 30 29 29
23 23 23 22 22 21 21 21 21 21 22 22 23 23 23 24 24 25 26 26 27 27 28 29 29 29 29 29 29 30 30 31 31 31 31 30 29 29 29 29 29 30 29
Wind_Direction
258 257 255 254 252 251 250 249 249 249 248 248 247 246 247 248 248 248 249 250 250 251 251 252 254 255 255 257 258 259 260 261 261 261 263 264 266 268 269 270 271 272 273
259 257 255 253 251 251 250 250 249 249 249 248 247 247 247 248 249 249 249 249 250 251 252 252 253 253 255 256 258 259 260 260 261 262 263 265 266 268 269 270 271 272 273
261 258 255 253 251 251 250 250 249 248 248 248 248 247 247 248 248 249 249 250 250 251 252 252 252 253 255 256 258 258 259 260 261 262 263 265 267 268 269 270 272 273 273
263 260 255 252 251 250 250 249 248 247 248 248 249 248 248 249 248 248 249 250 250 250 251 251 252 254 255 256 256 257 258 259 261 262 263 265 266 267 269 270 271 272 273
263 260 256 252 250 250 249 248 248 248 248 248 248 248 248 249 249 249 248 249 249 250 251 251 252 253 255 256 256 257 258 259 260 262 264 265 266 267 269 270 271 271 272
263 260 256 252 250 249 249 248 248 248 249 248 248 247 248 248 249 249 248 248 249 250 251 251 252 253 253 255 257 257 258 259 260 262 263 265 267 267 268 269 270 270 271
264 260 256 253 251 250 249 247 247 248 249 249 248 247 248 249 249 248 248 248 249 250 251 252 252 252 253 255 256 257 257 258 260 261 263 265 266 266 267 268 268 269 271
264 260 257 255 252 251 250 248 248 248 249 249 248 248 249 249 249 248 248 248 249 250 251 251 251 252 253 254 254 255 256 258 259 261 262 263 264 264 265 266 267 268 269
264 261 259 256 254 251 249 248 248 248 249 249 248 248 249 249 248 248 249 248 249 251 251 251 251 251 252 254 254 255 257 258 259 260 261 262 263 263 264 266 267 268 269
265 262 260 257 254 251 249 249 249 249 249 249 248 248 248 248 249 249 249 249 249 250 250 250 250 251 252 253 255 256 256 257 258 259 260 261 261 262 263 265 266 267 267
265 263 260 257 255 253 251 250 250 249 249 248 248 248 247 247 247 248 249 249 249 249 249 249 251 252 253 254 255 256 257 257 258 259 259 260 261 262 262 264 265 266 267
265 263 261 258 256 253 251 250 250 249 248 247 247 247 247 246 246 247 249 249 249 248 249 250 251 252 253 254 256 257 258 258 259 259 260 260 260 261 261 262 263 265 267
267 264 261 259 258 255 253 251 250 249 248 247 247 247 248 247 246 247 249 250 249 250 250 250 251 252 253 254 255 257 258 259 260 260 260 260 260 261 260 261 263 266 267
269 265 262 260 258 256 254 253 251 250 249 248 247 247 247 247 247 248 249 249 249 251 250 251 251 252 254 254 255 257 258 259 260 260 261 261 261 261 261 261 263 265 267
271 267 264 261 258 256 255 253 252 251 251 248 247 246 246 247 247 248 249 249 249 250 251 252 253 253 254 254 255 255 256 257 259 259 260 261 263 262 261 262 264 265 266
272 268 263 260 258 256 254 254 253 252 251 249 247 247 247 248 248 249 248 249 250 251 252 253 253 254 254 255 255 255 256 257 258 258 260 262 263 264 264 263 264 265 266
271 268 264 260 258 256 255 255 253 253 252 250 249 248 248 249 249 249 249 249 250 251 252 253 254 254 255 255 254 255 256 257 257 258 259 261 263 264 264 264 265 266 267
272 270 267 263 261 259 257 255 254 253 252 250 250 251 251 251 251 250 249 249 250 251 252 253 254 254 253 254 254 255 256 256 257 258 259 261 263 264 264 264 265 266 268
272 271 269 266 262 260 258 257 255 254 253 252 251 252 252 252 252 250 250 249 249 250 252 253 253 253 253 254 254 255 256 256 257 258 260 262 263 263 264 264 265 267 268
273 272 269 265 262 261 261 259 258 256 255 255 254 254 253 253 252 250 250 249 248 249 249 250 252 253 254 254 255 255 256 256 257 258 260 261 262 263 263 264 265 267 268
272 271 268 264 264 264 263 261 259 259 258 257 256 255 255 253 252 250 249 248 248 248 249 250 250 251 253 254 255 255 255 255 256 258 259 261 262 262 263 264 265 267 268
271 269 268 267 266 265 264 262 261 260 259 257 255 255 255 253 250 248 248 248 248 248 250 251 252 252 252 254 255 255 254 255 255 257 259 260 261 262 262 264 265 266 268
274 271 270 269 267 267 265 264 262 260 258 257 255 254 254 253 249 247 247 247 248 249 250 251 252 252 253 254 255 255 255 256 256 258 259 260 261 261 262 263 264 266 268
275 272 271 271 270 268 266 263 260 258 256 254 253 254 254 253 250 248 247 247 248 249 250 251 251 252 254 255 255 255 255 256 257 259 260 261 262 262 262 263 264 265 267
275 274 273 272 271 268 265 262 258 255 253 253 252 253 253 252 250 248 247 247 248 249 250 251 251 253 255 255 255 255 255 256 257 259 261 262 261 261 261 261 262 263 265
276 272 271 270 269 267 264 259 255 254 253 252 252 253 253 252 251 249 248 248 249 249 250 251 252 254 254 255 255 255 256 256 258 259 261 261 261 261 260 261 261 262 264
Height
5584 5586 5588 5590 5592 5595 5598 5601 5604 5608 5611 5615 5619 5623 5627 5630 5634 5639 5643 5647 5651 5655 5658 5662 5665 5668 5671 5673 5676 5678 5680 5682 5685 5688 5688 5688 5689 5690 5690 5691 5691 5691 5690
5569 5571 5573 5575 5578 5582 5585 5588 5591 5595 5598 5602 5606 5609 5613 5617 5621 5626 5630 5634 5638 5642 5645 5649 5652 5656 5659 5661 5664 5666 5668 5671 5673 5676 5677 5677 5678 5678 5679 5679 5679 5679 5679
5555 5556 5558 5561 5564 5567 5571 5575 5578 5582 5585 5589 5593 5597 5600 5604 5608 5612 5617 5621 5625 5629 5633 5636 5639 5643 5646 5649 5651 5654 5656 5658 5661 5663 5665 5666 5666 5667 5667 5668 5668 5667 5667
5541 5542 5544 5547 5550 5554 5557 5561 5565 5569 5573 5576 5580 5584 5587 5591 5595 5599 5603 5607 5612 5616 5619 5623 5626 5630 5633 5635 5638 5641 5643 5646 5648 5650 5652 5653 5654 5654 5655 5656 5656 5656 5655
5528 5529 5531 5533 5537 5540 5544 5548 5552 5556 5560 5563 5567 5571 5574 5578 5582 5586 5590 5594 5598 5602 5606 5609 5613 5616 5619 5622 5625 5628 5630 5633 5635 5637 5639 5641 5642 5643 5643 5643 5644 5644 5644
5515 5516 5518 5520 5524 5528 5531 5535 5540 5544 5547 5550 5554 5557 5561 5565 5568 5572 5576 5580 5585 5589 5592 5596 5599 5602 5605 5608 5611 5614 5617 5619 5622 5624 5626 5628 5629 5630 5631 5631 5631 5632 5633
5503 5504 5506 5508 5511 5515 5519 5523 5527 5531 5534 5538 5541 5545 5549 5552 5555 5559 5563 5567 5572 5575 5579 5582 5585 5589 5592 5595 5598 5601 5603 5606 5608 5611 5613 5615 5616 5618 5618 5619 5619 5619 5620
5492 5493 5494 5497 5499 5503 5507 5510 5515 5518 5522 5526 5529 5533 5536 5540 5543 5547 5550 5554 5559 5562 5566 5569 5572 5575 5578 5581 5584 5587 5590 5592 5595 5597 5600 5602 5602 5603 5604 5606 5606 5607 5608
5480 5481 5483 5485 5487 5490 5494 5498 5502 5506 5510 5513 5517 5520 5524 5527 5531 5534 5538 5542 5546 5550 5553 5556 5559 5562 5566 5569 5572 5575 5577 5579 5581 5583 5586 5587 5589 5590 5591 5592 5594 5595 5596
5469 5469 5471 5473 5475 5478 5482 5485 5489 5493 5497 5500 5504 5508 5511 5515 5518 5522 5525 5529 5533 5537 5540 5543 5546 5550 5553 5555 5558 5561 5564 5567 5568 5570 5572 5574 5575 5577 5578 5580 5581 5582 5583
5458 5459 5460 5462 5464 5467 5470 5473 5477 5481 5485 5488 5492 5495 5499 5502 5506 5509 5512 5516 5520 5524 5527 5531 5534 5537 5540 5542 5545 5548 5551 5553 5555 5557 5559 5561 5562 5564 5566 5567 5568 5569 5571
5448 5449 5450 5451 5453 5456 5459 5462 5465 5469 5473 5476 5480 5483 5486 5490 5493 5497 5500 5504 5507 5511 5515 5518 5521 5524 5527 5530 5532 5535 5537 5539 5541 5543 5545 5547 5550 5552 5553 5554 5555 5556 5557
5439 5439 5440 5442 5443 5446 5448 5451 5454 5457 5461 5465 5468 5472 5475 5478 5482 5485 5488 5492 5495 5498 5502 5506 5509 5511 5514 5517 5520 5522 5524 5526 5528 5530 5532 5535 5536 5538 5539 5540 5542 5543 5544
5430 5430 5431 5433 5434 5436 5438 5440 5443 5447 5450 5454 5457 5460 5464 5467 5470 5474 5477 5480 5483 5486 5490 5493 5496 5499 5502 5505 5507 5509 5511 5513 5515 5517 5519 5521 5522 5524 5525 5527 5529 5530 5530
5422 5422 5423 5423 5425 5426 5428 5431 5433 5436 5439 5443 5446 5449 5453 5457 5459 5463 5465 5469 5472 5475 5478 5481 5484 5487 5489 5492 5494 5497 5499 5501 5503 5505 5506 5508 5509 5510 5512 5514 5515 5516 5517
5414 5414 5414 5415 5416 5418 5420 5422 5423 5426 5429 5432 5436 5439 5442 5446 5449 5452 5455 5458 5460 5463 5466 5470 5472 5475 5477 5480 5482 5484 5486 5489 5491 5492 5494 5495 5497 5498 5499 5500 5501 5502 5503
5406 5406 5406 5407 5408 5410 5411 5413 5416 5418 5420 5423 5426 5429 5432 5435 5438 5441 5443 5446 5449 5452 5455 5458 5461 5463 5466 5468 5470 5472 5475 5477 5478 5480 5482 5483 5484 5485 5486 5487 5488 5489 5490
5398 5398 5399 5400 5401 5402 5404 5405 5407 5410 5412 5414 5416 5419 5422 5425 5427 5430 5433 5436 5439 5442 5444 5447 5450 5452 5454 5456 5459 5461 5463 5465 5467 5468 5470 5471 5472 5473 5474 5475 5476 5477 5477
5391 5391 5391 5392 5393 5394 5396 5397 5399 5401 5403 5405 5408 5410 5412 5415 5417 5420 5423 5426 5429 5431 5434 5436 5439 5441 5443 5445 5447 5449 5451 5453 5455 5457 5458 5459 5460 5461 5462 5462 5463 5464 5465
5383 5383 5383 5384 5385 5386 5388 5389 5391 5393 5395 5397 5399 5401 5403 5405 5408 5410 5413 5416 5418 5421 5424 5426 5429 5431 5433 5435 5437 5439 5441 5442 5444 5446 5447 5448 5449 5449 5450 5451 5452 5453 5453
5375 5375 5376 5376 5377 5378 5380 5381 5382 5384 5386 5388 5390 5391 5394 5396 5398 5401 5403 5406 5408 5411 5413 5416 5418 5421 5423 5424 5426 5428 5430 5431 5433 5435 5436 5437 5438 5439 5440 5440 5441 5442 5443
5368 5368 5368 5368 5369 5370 5371 5372 5373 5375 5377 5378 5380 5382 5384 5386 5388 5390 5393 5396 5398 5401 5404 5406 5408 5410 5412 5414 5416 5418 5419 5421 5422 5424 5425 5426 5427 5428 5429 5430 5431 5431 5432
5360 5360 5360 5360 5360 5361 5362 5363 5364 5365 5367 5369 5371 5373 5374 5376 5378 5381 5383 5386 5389 5391 5394 5396 5399 5401 5402 5404 5406 5407 5409 5411 5412 5414 5415 5416 5417 5418 5419 5420 5421 5421 5422
5352 5352 5352 5352 5352 5353 5353 5354 5355 5356 5358 5360 5362 5364 5366 5368 5370 5372 5374 5377 5379 5382 5384 5387 5389 5391 5393 5394 5396 5397 5399 5401 5402 5404 5405 5406 5407 5408 5409 5410 5411 5412 5412
5344 5344 5344 5344 5345 5345 5345 5346 5347 5348 5350 5352 5354 5356 5357 5359 5361 5363 5366 5368 5370 5373 5375 5377 5379 5381 5383 5385 5386 5388 5389 5391 5393 5394 5395 5396 5398 5399 5400 5400 5401 5402 5403
5336 5336 5336 5336 5337 5337 5338 5339 5340 5341 5343 5345 5346 5348 5350 5352 5354 5355 5357 5359 5362 5364 5366 5368 5370 5372 5374 5375 5377 5378 5380 5381 5383 5384 5385 5387 5388 5389 5390 5391 5392 5392 5393